Location: Alblasserdam
(51.8667°N, 4.6627°E)
Time: 01:47:43
(UTC+00:00)

Daily predictions for brighter satellites

Satellite Brightness Start Highest point End
(mag) Time Altitude Azimuth Time Altitude Azimuth Time Altitude Azimuth
CENTAUR R/B 3.7 02:45:10 53° ENE 02:45:10 53° ENE 02:52:21 10° ESE
Cosmos 2227 Rocket 4.3 02:58:27 21° NE 02:58:27 21° NE 03:00:15 10° NE
USA 238 DEB 4.4 03:18:26 52° SE 03:18:26 52° SE 03:23:51 10° SE
USA 238 4.3 03:18:30 52° SE 03:18:30 52° SE 03:23:57 10° SE
Lacrosse 4 Rocket 4.2 03:22:25 17° E 03:22:25 17° E 03:23:44 10° E
Cosmos 2297 Rocket 3.9 03:32:24 26° NNE 03:32:24 26° NNE 03:34:46 10° NNE
ALOS 4.0 03:34:51 10° NNE 03:38:58 30° E 03:40:32 24° SE
Cosmos 2263 Rocket 3.7 03:46:18 13° SSE 03:50:38 33° ESE 03:55:41 10° NE
ATLAS 3B R/B 3.3 03:59:42 41° NNW 04:01:39 52° NNE 04:08:34 10° ESE
SJ 16-02 4.0 03:58:58 10° SE 04:02:06 19° E 04:05:15 10° NE
USA 306 4.3 04:04:26 36° ENE 04:04:26 36° ENE 04:07:05 10° ENE
Cosmos 1603 3.7 04:08:24 74° SSE 04:08:24 74° SSE 04:13:28 10° SSE
FENGYUN 3A 4.1 04:05:48 10° NNE 04:11:11 59° E 04:16:30 10° S
COSMO-SKYMED 1 3.6 04:08:48 10° SE 04:12:56 45° ENE 04:13:50 39° NE
EXPRESS MD2 4.4 04:17:00 41° ESE 04:17:00 41° ESE 04:20:53 10° E
Cosmos 1943 3.0 04:17:12 83° NW 04:17:27 87° WSW 04:23:09 10° SSE
Cosmos 1386 Rocket 4.4 04:11:56 10° S 04:18:21 88° W 04:24:44 10° N
ADEOS 4.0 04:13:45 10° NNE 04:18:57 59° ESE 04:24:05 10° S
Cosmos 1933 4.3 04:21:48 45° SE 04:21:48 45° SE 04:24:52 10° SSE
NOSS 3-2 (C) 4.0 04:20:32 55° W 04:22:00 64° SW 04:30:19 10° SSE
ATLAS CENTAUR R/B 2.8 04:23:42 28° NE 04:23:42 28° NE 04:26:48 10° E
Cosmos 1777 Rocket 4.1 04:23:33 44° S 04:25:11 74° ESE 04:30:24 10° NNE
Cosmos 1680 Rocket 4.3 04:24:30 26° N 04:27:18 51° ENE 04:32:29 10° SE
Cosmos 2344 4.3 04:22:17 30° NW 04:27:37 74° NE 04:39:49 10° SE
Nadezhda 1 Rocket 4.2 04:28:56 49° SW 04:28:56 49° SW 04:33:52 10° SSW
Meteor 1-4 Rocket 3.7 04:31:52 39° ESE 04:31:52 39° ESE 04:34:27 10° SSE
SL-4 R/B 2.6 04:33:39 48° SE 04:33:39 48° SE 04:36:55 10° E
Meteor 1-31 Rocket 3.3 04:30:02 10° NNE 04:33:51 58° E 04:35:13 36° SSE
Cosmos 1782 4.0 04:31:45 22° NNE 04:33:56 42° ENE 04:37:46 10° SE
Cosmos 1538 Rocket 4.1 04:35:14 57° SW 04:35:14 57° SW 04:39:52 10° S
CENTAUR R/B 3.2 04:32:23 44° WNW 04:34:48 58° SW 04:43:22 10° SSE
Cosmos 2082 4.1 04:35:30 46° NNW 04:35:30 46° NNW 04:40:31 10° NNE
Cosmos 158 Rocket 4.0 04:37:07 41° N 04:38:49 72° ENE 04:43:45 10° SSE
Cosmos 2227 Rocket 3.3 04:40:17 29° NNW 04:40:17 29° NNW 04:44:09 10° NNE
Cosmos 2227 4.3 04:36:02 14° SSW 04:40:50 74° ESE 04:46:28 10° NNE
ARGOS Delta rocket 3.8 04:35:48 10° N 04:41:05 77° WNW 04:46:04 10° SSW
Cosmos 1441 Rocket 4.4 04:45:47 32° NNE 04:45:47 32° NNE 04:47:55 10° NNE
deb Chang Zheng 4 3.8 04:40:30 10° NNE 04:44:51 71° ESE 04:49:11 10° S
ATLAS 2AS CENTAUR R/B 3.8 04:38:15 10° SSW 04:45:51 51° ESE 04:53:20 10° NE
Gbstr 26 Del rocket 2.7 04:56:52 63° SSW 04:56:55 63° SSW 05:00:45 10° ESE
FALCON 9 DEB 3.2 04:57:31 77° ENE 04:57:31 77° ENE 05:00:48 10° ENE
Cosmos 1633 2.4 04:53:58 10° S 04:57:29 83° E 05:01:03 10° NNE
Cosmos 1515 Rocket 4.0 04:53:15 10° N 04:57:41 62° ENE 05:02:07 10° SSE
USA 307 2.8 04:57:31 62° WNW 04:58:03 71° N 05:02:22 10° ENE
Lacrosse 4 Rocket 1.4 04:58:46 59° W 04:59:02 61° WSW 05:03:21 10° SSE
SKYMED 2 3.4 04:56:40 10° S 05:00:59 67° WSW 05:02:28 39° NNW
METEOR-M 4.0 04:56:56 10° NNE 05:02:17 72° WNW 05:07:36 10° SSW
USA 308 2.9 05:03:29 55° WNW 05:04:16 70° N 05:08:35 10° ENE
Cosmos 1184 Rocket 2.8 05:01:16 10° S 05:04:31 77° E 05:07:49 10° NNE
SAR-Lupe-4 4.4 05:01:36 10° S 05:03:59 36° SSW 05:03:59 36° SSW
Cosmos 2151 4.0 05:10:38 28° NNW 05:10:38 28° NNW 05:13:01 10° N
Cosmos 1461 4.0 05:09:38 32° SW 05:09:38 32° SW 05:13:28 10° S
CZ-4B R/B 3.2 05:07:19 10° NNE 05:11:53 84° ESE 05:16:21 10° SSW
Meteor 1-26 Rocket 4.2 05:06:38 10° NNW 05:12:28 65° W 05:18:04 10° S
Cosmos 1745 Rocket 4.4 05:07:56 16° SW 05:12:36 39° WNW 05:18:33 10° N
Cosmos 1151 Rocket 3.1 05:12:35 39° NW 05:13:44 51° W 05:17:52 10° S
Cosmos 2297 Rocket 3.6 05:14:13 20° NNW 05:14:17 20° NNW 05:18:24 10° NNE
Okean O Rocket 4.4 05:11:05 10° NE 05:14:27 21° E 05:17:48 10° SE
ALOS 2.6 05:12:06 10° N 05:16:30 41° WNW 05:19:00 23° WSW
Cosmos 1689 Rocket 3.7 05:15:10 10° S 05:16:25 22° SSW 05:16:25 22° SSW
H-2A R/B 3.4 05:15:30 10° NNE 05:19:24 58° E 05:23:14 10° S
BREEZE-M DEB (TANK) 4.3 05:16:31 25° W 05:20:26 43° SW 05:23:49 10° SE
CZ-2C R/B 4.2 05:20:30 10° NNW 05:21:26 14° NNW 05:21:26 14° NNW
Cosmos 1328 Rocket 3.8 05:22:02 24° NNW 05:24:22 46° W 05:28:36 10° SSW
CZ-4C R/B 3.3 05:20:07 10° SSW 05:24:51 43° ESE 05:30:30 10° NE
Cosmos 1500 Rocket 4.5 05:20:54 10° S 05:25:03 50° E 05:29:15 10° NNE
Cosmos 2181 Rocket 4.0 05:19:00 10° NNW 05:25:04 54° W 05:31:01 10° SSW
ERBS 2.1 05:25:08 48° W 05:25:55 73° NNW 05:29:13 10° ENE
CRYOSAT 2 4.5 05:21:36 10° SSW 05:26:20 50° W 05:31:06 10° NNW
BREEZE-M DEB (TANK) 4.4 05:25:50 14° SSW 05:27:45 27° SSE 05:31:27 10° E
Lacrosse 5 2.8 05:25:21 10° SSW 05:30:12 48° SE 05:35:05 10° ENE
Meteor PRIRODA 3.6 05:30:18 10° N 05:34:00 63° WNW 05:37:42 10° SSW
Cosmos 2263 Rocket 2.3 05:28:49 10° SW 05:34:22 54° NW 05:39:59 10° NNE
USA 305 3.0 05:32:40 30° WNW 05:34:42 65° N 05:38:59 10° E
Meteor 1-10 Rocket 4.3 05:29:42 10° N 05:35:17 77° ENE 05:40:52 10° SSE
PSLV R/B 4.4 05:32:20 10° SSW 05:36:14 38° W 05:38:31 21° NW
Cosmos 1709 Rocket 4.3 05:32:09 10° SW 05:38:11 43° WNW 05:44:16 10° N
Meteor 2-3 Rocket 3.8 05:34:23 10° SSW 05:40:00 56° WNW 05:45:44 10° N
Cosmos 923 Rocket 4.5 05:37:01 20° NW 05:40:13 39° WSW 05:45:06 10° S
SJ 16-02 1.3 05:35:53 10° SW 05:40:16 60° WNW 05:44:41 10° NNE
ASTRO F (AKARI) 4.0 05:37:36 10° NNE 05:40:43 83° WNW 05:43:49 10° SSW
Cosmos 2154 Rocket 4.5 05:35:30 10° S 05:41:38 65° E 05:47:50 10° NNE
Okean 3 Rocket 4.1 05:37:44 10° SW 05:41:47 36° WNW 05:45:53 10° N
USA 306 3.0 05:40:35 25° WNW 05:42:57 65° N 05:47:15 10° E
Cosmos 1766 Rocket 4.1 05:39:19 10° SW 05:43:29 37° WNW 05:47:40 10° N
Cosmos 1862 3.8 05:39:59 10° S 05:44:00 65° E 05:48:02 10° NNE
SJ-12 4.4 05:41:51 10° N 05:45:37 37° WNW 05:49:22 10° SW
Cosmos 2082 Rocket 3.9 05:41:18 10° NNW 05:46:00 25° NE 05:50:42 10° E
CZ-4B R/B 4.5 05:41:21 10° NNE 05:46:26 43° E 05:51:33 10° S
Cosmos 1743 Rocket 3.6 05:43:21 10° S 05:47:48 85° E 05:52:19 10° NNE
COSMO-SKYMED 1 3.6 05:45:44 10° SSW 05:49:18 24° W 05:51:01 19° WNW
FENGYUN 3A 4.5 05:46:37 10° N 05:51:11 28° WNW 05:55:43 10° WSW
Cosmos 1408 Rocket 3.7 05:47:57 10° SSW 05:52:18 50° WNW 05:56:40 10° N
CZ-2C R/B 3.0 05:47:03 10° SSE 05:52:31 70° ENE 05:57:53 10° N
ATLAS 3B R/B 2.9 05:46:59 16° NW 05:52:33 57° SW 05:59:31 10° SSE
Cosmos 990 Rocket 4.0 05:49:52 10° SSW 05:55:07 85° WNW 06:00:26 10° NNE
Spot 2 4.5 05:50:27 10° NNE 05:55:38 87° WNW 06:00:47 10° SSW
PSLV R/B 3.7 05:53:23 10° N 05:57:20 73° WNW 06:01:09 10° SSW
COSMOS 2406 4.1 05:52:00 10° NNW 05:57:35 47° NE 06:03:08 10° SE
ADEOS 4.4 05:53:48 10° N 05:58:08 27° WNW 06:02:28 10° WSW
EO 1 Delta rocket 4.2 05:56:03 10° SSW 06:00:57 45° W 06:05:25 10° NNW
ATLAS CENTAUR R/B 1.4 05:59:53 17° NW 06:02:31 52° SW 06:06:18 10° SSE
Cosmos 1833 Rocket 3.7 05:57:56 10° NNW 06:03:20 43° NE 06:08:40 10° ESE
ATLAS 5 CENTAUR R/B 2.7 06:01:57 16° WNW 06:04:26 25° NNW 06:06:33 10° NNE
Cosmos 2327 Rocket 4.4 05:59:25 10° S 06:05:32 86° W 06:11:40 10° N
Meteor 1-4 Rocket 4.3 06:06:06 14° W 06:06:06 14° W 06:07:40 10° WSW
Cosmos 2074 Rocket 4.0 06:00:22 10° SSW 06:06:30 61° WNW 06:12:40 10° N
MOS 1 Rocket 3.8 06:02:32 10° SSW 06:07:04 42° W 06:11:54 10° NNW
Cosmos 1805 Rocket 3.9 06:03:12 10° S 06:07:37 70° E 06:12:04 10° NNE
Meteor 1-31 Rocket 4.2 06:05:18 10° NNW 06:07:52 17° WNW 06:10:26 10° WSW
NOAA 6 4.0 06:03:42 10° NNE 06:08:51 84° WNW 06:13:58 10° SSW
Cosmos 1680 Rocket 4.4 06:04:51 11° NW 06:09:12 30° W 06:13:48 10° SSW
Cosmos 1782 4.1 06:07:24 12° NW 06:10:00 21° W 06:13:04 10° SW
SMAP 3.4 06:06:09 10° NNE 06:10:50 73° ESE 06:15:29 10° S
SL-4 R/B 1.7 06:09:15 13° W 06:12:45 88° S 06:16:23 10° E
H-2A R/B 2.2 06:08:51 10° NNE 06:12:45 73° WNW 06:16:35 10° SSW
RESURS DK-1 2.3 06:11:52 10° SSW 06:16:02 86° WNW 06:20:14 10° NNE
NOSS 3-4 (A) 3.5 06:10:49 10° WSW 06:16:45 59° NW 06:23:15 10° NE
NOSS 3-4 (C) 3.5 06:10:56 10° WSW 06:16:53 60° NW 06:23:23 10° NE
Cosmos 1242 Rocket 4.4 06:13:56 10° N 06:17:12 30° ENE 06:20:28 10° SE
Cosmos 2228 Rocket 3.4 06:15:05 10° NNW 06:19:18 44° W 06:23:28 10° SSW
Cosmos 2184 Rocket 4.2 06:14:30 10° SSW 06:20:38 52° WNW 06:26:52 10° N
Genesis I 3.6 06:17:23 10° SSW 06:21:11 68° SE 06:25:02 10° NE
USA 234 3.6 06:16:21 10° ENE 06:22:54 71° SSE 06:29:26 10° SW
Cosmos 405 Rocket 2.6 06:20:01 10° SSW 06:23:38 57° WNW 06:27:21 10° N
Cosmos 1295 Rocket 4.4 06:18:52 10° SSW 06:24:57 79° W 06:31:05 10° N
Cosmos 2227 Rocket 4.1 06:22:36 10° NW 06:25:09 13° NNW 06:27:41 10° N
Cosmos 1812 3.5 06:24:30 10° NNW 06:27:55 31° W 06:31:20 10° SSW
FALCON 9 DEB 4.1 06:30:22 10° SW 06:33:28 45° SSE 06:36:36 10° E
FALCON 9 DEB 3.2 06:30:55 10° W 06:34:25 76° N 06:37:53 10° E
Geosat 4.3 06:30:45 10° SSE 06:35:39 52° WSW 06:40:35 10° NW
ATLAS 2AS CENTAUR R/B 3.1 06:28:58 10° WSW 06:36:52 63° NW 06:44:33 10° NE
USA 307 3.0 06:34:01 10° WNW 06:38:21 73° NNE 06:42:40 10° E
EP 3 4.3 06:37:32 10° SSW 06:39:29 54° SE 06:41:22 10° NE
USA-17 4.3 06:36:53 10° SW 06:40:23 86° SE 06:43:27 10° NE
YAOGAN 6 3.3 06:37:21 10° N 06:40:28 29° WNW 06:43:31 10° SW
Cosmos 372 Rocket 4.1 06:37:30 10° SSW 06:42:36 83° ESE 06:47:44 10° NNE
Cosmos 1633 Rocket 3.6 06:39:03 10° S 06:43:26 67° E 06:47:51 10° NNE
Cosmos 1437 Rocket 3.4 06:40:35 10° NNW 06:44:02 33° W 06:47:27 10° SSW
USA 308 3.0 06:40:15 10° WNW 06:44:34 75° NNE 06:48:53 10° E
Cosmos 1898 Rocket 3.9 06:39:41 10° SW 06:44:46 44° NW 06:49:54 10° NNE
